Location: Unnamed
(47.6578°N, 23.5640°E)
Time: 22:41:42
(UTC+03:00)

ISS - Pass Details

Date: 07 May 2020
Orbit: 418 x 421 km, 51.6° (Epoch: 08 May)

Event Time Altitude Azimuth Distance (km) Brightness Sun altitude
Exits shadow 01:47:00 - 79° (E) 1,814 -0.3 -25.2°
Enters shadow 02:46:35 -61° 244° (WSW) 11,646 3.5 -22.8°
Maximum altitude 03:19:59 79° 337° (NNW) 430 -3.8 -20.3°
